Location: Amsterdam
(30.7274°N, 84.4357°W)
Time: 06:55:06
(UTC+00:00)

Transit 2A Rocket - Pass Details

Date: 20 February 2026
Orbit: 583 x 900 km, 66.7° (Epoch: 8 March)

Event Time Altitude Azimuth Distance (km) Brightness Sun altitude
Rises 22:08:57 0° 258° (WSW) 3,485 10.1 15.7°
Reaches altitude 10° 22:13:09 10° 286° (WNW) 2,570 8.7 14.9°
Maximum altitude 22:15:37 13° 310° (NW) 2,391 8.0 14.4°
Drops below altitude 10° 22:18:07 10° 335° (NNW) 2,572 7.8 13.9°
Sets 22:22:21 0° 4° (N) 3,490 8.2 13.0°
